Theta_e
338 340 341 338 335 336 338 338 338 337 337 337 336 335 335 333 331 331 331 330 330 330 331 332 333 333 331 331 330 330 329 328 327 327 327 327 327 326 326 326 325 325 325 324 323 324 325 326 327 327 327 327 327 325 325 325 325 324 324 325 326 325 325 326 326 326 326 326 327 327 326 326 326 327 326 326 326 327 328 328 328 327 327 327 326
338 340 341 339 336 337 339 338 338 337 337 337 336 336 335 333 333 334 332 329 330 332 332 333 333 332 331 331 330 329 328 327 327 328 328 327 327 326 325 325 325 325 324 323 323 325 325 326 327 327 327 328 327 326 325 325 325 325 325 325 325 325 325 325 326 326 327 327 327 328 327 327 327 327 327 326 327 327 328 328 328 327 327 327 326
338 339 340 341 338 338 339 339 338 338 337 337 337 336 335 334 335 336 334 332 332 333 333 333 333 332 330 330 330 329 328 328 328 328 328 327 327 325 324 324 324 324 323 323 325 325 326 327 327 327 327 327 327 326 325 326 326 325 325 325 324 324 325 325 325 326 327 327 327 328 327 327 327 327 327 327 327 327 328 327 328 328 327 327 327
338 338 339 340 339 339 339 340 339 338 337 337 337 336 335 335 336 336 335 333 333 334 333 333 332 331 330 330 330 329 328 328 329 328 327 327 326 324 322 320 320 322 322 323 324 324 325 327 326 326 327 327 326 326 326 327 327 326 325 324 324 324 324 324 325 326 327 327 327 328 327 327 327 327 327 327 327 327 327 327 327 328 328 327 327
338 338 338 338 339 339 339 340 340 339 337 337 337 337 336 336 337 336 334 333 333 334 334 333 332 331 330 329 329 329 328 328 328 327 326 325 325 323 319 316 317 321 322 323 323 323 324 325 325 326 326 326 326 326 326 327 327 326 325 324 324 324 323 323 324 326 327 327 327 327 327 328 327 326 326 327 326 326 327 327 327 326 327 327 327
338 338 338 338 338 339 338 339 340 340 338 337 337 337 337 337 336 336 335 334 333 334 334 333 331 331 330 328 329 329 329 328 327 325 323 321 322 321 317 316 317 320 322 323 324 324 323 323 324 324 325 324 325 326 326 326 326 326 326 325 324 324 324 324 324 326 327 327 327 327 327 327 326 326 326 326 326 326 326 326 326 326 326 326 326
338 337 337 337 338 338 338 338 340 340 339 338 337 337 336 336 336 336 336 334 333 333 333 332 331 330 329 327 328 329 328 327 324 319 316 315 317 317 315 316 317 320 322 323 323 322 321 321 322 322 322 323 324 326 326 326 326 326 326 326 325 324 325 325 325 326 326 326 327 326 325 325 325 325 325 326 326 325 325 325 325 325 326 326 325
337 337 337 337 338 338 337 337 338 339 339 337 336 336 336 335 335 335 335 334 333 332 332 331 330 330 328 327 328 328 328 326 321 317 313 313 314 315 315 317 317 318 320 320 320 319 318 319 320 321 322 322 323 325 325 325 326 326 326 326 325 324 325 326 325 326 327 326 326 326 326 325 325 324 325 326 326 325 325 325 325 325 325 324 323
337 337 337 337 337 338 337 336 336 337 338 337 336 336 336 335 335 335 335 334 333 332 332 330 330 329 327 326 327 328 328 324 321 319 316 314 315 316 316 317 317 317 317 316 316 316 316 318 320 321 322 323 324 324 324 324 325 325 325 325 325 325 325 326 325 326 327 327 326 326 326 325 325 324 324 325 325 325 325 325 325 325 324 322 322
337 337 336 336 337 337 336 335 335 335 336 336 336 336 335 335 335 334 334 334 332 332 331 330 329 328 327 327 328 328 327 323 321 320 317 315 316 317 317 318 317 316 314 312 313 314 316 318 320 321 323 324 324 324 324 325 325 324 324 325 325 325 325 326 326 325 326 327 327 326 326 325 325 325 324 324 325 325 325 325 325 324 323 322 321
337 337 336 336 336 337 336 335 335 335 335 335 334 334 335 335 334 334 334 333 332 332 331 330 329 327 327 329 329 328 326 323 321 319 317 316 317 317 317 317 315 313 312 312 314 316 317 319 320 320 321 322 323 323 323 324 325 324 323 324 325 325 325 325 326 325 325 326 326 326 325 325 325 325 325 324 325 325 324 324 324 323 322 321 321
337 336 336 336 336 336 336 335 335 335 335 334 334 333 333 333 332 332 333 333 333 332 330 329 328 328 329 330 329 328 325 322 319 316 316 316 316 316 315 315 313 312 312 314 317 318 319 319 320 320 319 319 320 320 319 320 323 323 322 323 324 325 325 325 325 325 325 325 326 325 325 325 325 325 325 324 324 325 325 324 323 322 322 321 321
336 337 337 335 335 336 335 335 335 335 335 333 332 331 331 331 330 331 332 333 332 331 331 329 328 329 330 329 330 328 324 322 320 316 315 315 315 315 314 313 313 313 314 317 318 319 320 320 320 320 319 317 318 318 318 319 321 321 321 322 323 324 324 324 324 324 324 324 325 325 324 324 325 325 325 325 324 324 324 324 323 322 321 320 319
337 336 336 335 335 335 334 334 335 335 333 333 332 331 330 330 330 331 332 332 331 331 331 329 329 330 330 329 329 327 325 323 319 316 316 316 315 314 313 314 314 314 316 317 317 319 320 321 320 320 318 316 318 319 319 320 319 319 320 322 323 323 323 323 323 323 323 323 324 325 325 324 325 324 324 324 324 324 324 323 322 321 320 318 317
337 336 335 335 334 334 333 334 335 332 331 333 332 331 331 330 330 331 330 331 331 330 330 330 330 330 329 329 327 325 326 325 319 317 318 317 316 315 314 314 315 315 316 316 316 318 320 321 321 319 315 312 315 318 318 318 318 317 319 321 322 322 322 322 323 323 323 323 324 324 325 325 325 324 324 324 324 323 323 321 320 320 319 318 317
335 335 335 334 334 333 334 334 333 331 330 331 330 329 330 330 330 330 330 331 330 328 328 328 329 330 329 327 325 324 327 326 320 319 319 317 317 316 314 315 316 317 317 317 316 316 318 320 320 317 312 308 312 315 316 317 317 317 319 321 322 322 322 322 322 322 323 323 323 324 324 324 324 324 323 323 323 323 321 317 316 318 317 318 318
334 334 333 333 333 333 334 334 333 332 331 331 330 329 329 329 329 329 330 330 329 327 326 324 326 330 329 326 325 326 328 326 321 320 319 317 319 318 314 313 314 317 318 318 316 314 315 317 318 316 310 307 309 314 316 316 317 319 321 322 322 322 322 321 320 321 322 322 323 323 323 324 323 323 323 322 322 322 320 315 314 315 314 314 317
332 332 330 330 331 332 333 333 333 333 332 331 331 329 330 330 329 329 330 330 330 328 326 323 325 330 329 326 326 327 328 326 322 320 318 317 319 318 313 311 311 315 318 318 317 315 313 314 314 314 310 306 308 313 315 316 317 320 321 321 321 321 320 319 319 321 322 322 323 323 323 323 322 322 321 321 320 321 318 314 314 314 312 312 314
329 329 328 329 330 331 332 332 333 333 332 332 331 329 330 331 330 330 330 329 329 327 325 324 327 329 329 327 327 328 328 326 322 320 317 317 318 315 312 311 309 310 313 316 317 315 313 311 311 311 309 306 307 312 315 315 317 319 320 320 319 319 319 319 319 320 321 322 322 322 321 321 321 320 320 319 318 319 317 314 315 316 315 313 313
327 327 328 328 329 330 330 331 332 332 332 332 331 329 330 330 329 330 330 328 328 327 325 325 328 329 328 327 327 327 327 325 322 321 318 316 316 314 313 312 309 307 308 311 314 314 312 309 308 309 308 305 307 312 314 314 314 316 317 317 316 315 316 317 318 318 320 321 321 320 319 319 319 318 318 318 317 318 317 315 316 317 317 316 314
327 327 328 328 328 329 329 329 329 330 331 331 330 329 329 328 327 328 329 328 328 327 326 326 327 328 327 327 327 328 326 324 323 322 318 315 315 315 315 313 310 307 306 307 309 310 309 306 306 307 307 305 306 310 313 312 312 313 314 314 313 312 312 314 316 317 318 319 320 320 320 318 318 318 317 317 317 317 317 317 317 317 317 318 317
327 327 327 328 328 328 328 328 328 328 329 330 330 329 329 328 328 328 328 328 328 327 326 326 327 327 327 327 328 327 325 323 324 322 317 315 315 316 316 315 312 309 307 305 306 307 306 305 305 306 306 305 305 307 309 310 310 311 311 311 310 310 309 311 315 316 317 317 318 319 319 318 318 317 317 316 316 316 316 315 315 316 316 318 318
326 327 327 327 328 328 328 329 329 328 328 329 330 330 330 330 329 329 328 327 328 327 326 326 326 326 327 328 327 325 324 324 324 320 316 315 316 317 318 317 315 311 307 305 305 305 305 305 305 305 305 305 304 305 306 308 309 309 309 308 307 307 307 309 313 316 316 316 316 317 318 318 317 317 316 316 316 315 314 313 313 314 314 315 316
326 327 326 326 327 328 328 330 330 329 328 328 329 329 330 330 330 329 328 328 327 327 326 325 325 326 327 328 327 324 324 325 324 318 315 316 317 318 319 319 318 313 307 305 305 305 305 305 304 305 305 305 305 304 305 307 308 308 308 307 307 307 307 308 311 314 315 315 315 316 316 317 316 316 316 315 314 313 313 313 313 313 313 314 314
324 325 325 326 327 327 328 328 328 327 327 328 329 329 329 329 329 329 329 328 327 327 327 325 324 326 328 329 327 324 325 326 322 317 315 316 318 320 320 320 320 317 310 305 305 305 305 304 304 304 305 305 304 304 305 306 307 308 308 308 309 309 309 309 309 310 312 313 313 314 315 315 315 315 314 313 313 313 313 313 313 313 313 313 313
323 324 324 324 324 325 326 326 325 325 325 327 328 329 329 329 329 328 328 328 328 327 326 325 325 326 328 328 327 325 325 325 321 317 316 317 319 321 321 321 320 319 314 308 305 305 305 304 304 304 304 305 304 304 306 307 308 309 309 309 309 309 310 309 309 309 309 309 310 311 312 312 313 313 313 313 312 312 312 313 314 314 313 313 313
322 323 323 323 323 323 324 324 325 324 323 325 327 328 328 329 329 328 327 327 328 327 327 326 326 327 328 327 327 325 326 325 320 317 318 318 319 322 322 321 320 320 316 310 306 305 304 304 304 304 304 304 304 305 306 308 309 309 309 310 309 309 310 310 310 310 310 310 310 310 311 311 312 313 313 313 313 313 313 313 314 314 314 314 313
320 321 322 322 322 322 322 322 323 323 323 325 326 326 327 328 328 327 326 327 328 327 328 327 326 326 326 326 327 326 325 324 319 317 319 318 318 322 322 321 320 319 316 312 308 305 304 304 304 304 305 305 305 306 307 309 309 309 310 310 309 310 310 310 311 312 312 313 314 313 313 313 314 314 314 314 315 315 315 314 314 314 314 314 314
318 319 320 321 321 321 321 321 321 321 322 324 325 326 327 327 327 327 326 327 327 326 327 327 325 324 325 325 326 325 323 322 318 318 320 317 316 321 322 320 319 318 316 313 309 306 305 305 305 305 305 305 306 307 309 309 310 310 310 310 310 310 310 310 311 312 313 314 315 315 315 316 316 316 316 316 316 315 315 315 315 315 315 315 315
313 316 318 319 320 320 320 321 321 321 322 323 324 325 326 326 327 326 326 326 326 325 325 325 324 324 325 325 324 323 321 321 320 320 320 316 317 321 322 320 320 319 316 313 310 308 306 305 305 305 305 306 307 309 310 310 310 310 310 310 310 310 309 311 313 314 314 314 314 316 317 317 317 317 317 317 317 317 316 316 316 315 315 315 315
309 313 317 318 319 319 320 320 320 321 321 322 323 324 324 326 325 326 326 325 325 324 324 324 324 324 324 323 323 322 321 321 321 321 319 316 316 319 320 319 318 317 314 313 313 312 310 308 307 307 307 307 309 310 310 310 310 310 311 311 312 312 312 314 316 317 316 316 316 317 317 317 318 318 318 318 318 318 317 317 317 317 316 315 315
307 311 314 316 317 317 318 319 319 319 320 322 323 323 323 323 324 324 325 325 325 325 324 324 324 324 323 322 322 322 321 321 321 320 319 317 316 317 318 317 315 314 313 313 313 313 312 312 312 311 311 311 312 312 312 312 312 313 314 314 315 316 316 317 317 317 317 317 317 318 318 318 318 318 319 319 319 318 318 318 318 318 318 317 317
306 309 312 313 314 315 317 318 318 319 320 320 322 323 322 322 322 323 323 323 324 323 323 323 324 324 323 323 322 322 321 321 321 320 319 317 316 315 316 315 315 314 314 313 311 310 312 315 315 315 315 315 315 315 315 315 315 315 316 316 316 317 317 317 317 317 317 318 318 318 318 319 319 319 319 319 319 319 319 318 318 318 319 319 318
304 307 309 309 310 312 314 316 317 318 319 320 321 321 321 321 322 322 322 322 322 322 321 322 322 322 322 321 321 321 321 321 320 319 317 315 314 313 314 315 315 314 314 314 313 314 315 317 317 317 317 317 316 316 316 316 316 316 316 316 316 316 316 317 317 317 317 317 318 318 318 318 319 319 319 320 319 319 319 319 319 319 319 320 319
303 305 307 307 307 309 311 313 315 316 317 319 319 319 320 321 320 321 321 321 321 321 320 320 321 321 321 321 320 320 319 319 318 317 316 316 315 314 314 315 315 315 316 316 316 316 318 319 318 318 317 317 318 317 316 316 316 316 316 316 316 316 316 317 317 317 317 317 318 318 318 318 318 319 319 319 319 319 318 318 319 319 319 319 319
302 303 304 305 305 306 307 309 312 314 315 316 316 316 318 319 319 319 320 320 320 319 319 319 319 319 320 320 319 319 318 317 317 316 317 318 318 317 317 317 316 317 318 318 317 318 319 320 320 319 318 318 318 318 317 317 316 316 317 317 317 317 317 317 317 317 317 317 318 318 318 318 318 318 318 318 318 318 318 318 318 318 318 318 318
302 303 303 303 304 304 304 305 306 308 310 310 311 313 316 316 316 316 317 317 318 318 318 318 318 317 318 318 318 318 319 318 317 318 318 319 319 319 318 317 318 318 317 316 318 320 320 320 320 320 320 319 319 319 318 318 318 318 318 318 319 319 318 319 319 319 319 319 319 319 319 319 319 319 318 318 318 318 318 318 318 318 318 318 318
302 303 303 303 304 303 303 304 304 304 304 304 305 309 311 312 311 311 312 314 314 314 314 315 315 315 315 316 316 317 318 318 317 318 318 318 318 318 317 316 317 318 317 315 317 319 319 319 319 319 319 318 318 318 319 319 319 319 318 318 318 318 318 318 318 318 318 318 318 318 317 317 317 317 317 317 317 317 316 316 317 317 317 316 316
301 301 302 303 303 304 304 305 305 304 304 305 305 305 306 306 305 305 306 308 308 308 309 311 312 312 312 313 313 315 316 316 317 317 316 316 316 316 315 315 316 316 316 315 316 316 316 316 316 316 316 316 316 316 316 317 317 317 317 316 316 316 315 315 315 315 314 314 314 314 313 313 313 313 313 313 312 313 312 312 313 314 314 313 313
300 301 301 301 302 303 303 304 304 303 303 305 306 307 306 305 304 304 304 303 302 302 303 305 306 307 308 308 309 310 311 312 313 313 313 313 313 312 313 314 314 314 315 314 314 314 314 314 314 313 313 314 313 313 313 314 314 314 314 314 314 313 313 313 313 313 312 312 312 312 312 312 312 311 311 310 310 310 310 310 310 311 311 311 311
302 301 301 302 302 302 302 301 300 300 301 301 304 307 307 305 305 305 304 301 300 300 300 300 301 302 303 304 304 305 305 307 308 309 309 310 310 309 310 311 312 312 312 311 311 311 311 310 310 310 309 309 309 309 310 311 311 312 312 311 311 311 311 312 312 312 312 312 312 312 312 312 312 312 311 311 310 309 309 309 309 309 309 310 310
301 301 302 302 302 302 301 300 299 299 300 300 301 303 303 303 304 304 302 300 299 299 299 299 300 300 301 302 302 302 303 303 304 305 305 306 307 307 308 308 309 310 310 309 309 309 309 308 308 308 308 308 309 309 309 309 309 310 310 310 310 309 309 309 309 309 309 309 309 310 311 311 311 311 311 311 311 311 310 309 309 309 309 309 309
299 299 300 301 301 301 301 300 299 299 299 299 301 301 300 301 302 300 299 298 298 298 298 298 298 298 299 299 300 300 300 301 301 301 301 302 302 303 303 304 304 305 306 306 307 307 308 308 307 307 307 307 308 308 309 309 309 309 309 309 309 308 308 307 306 305 305 305 305 305 306 308 309 310 311 310 310 311 311 311 310 310 310 310 309
298 298 298 299 299 299 299 299 298 298 298 298 299 299 299 300 299 298 297 298 298 297 297 297 297 298 298 298 298 298 298 298 299 299 299 299 299 299 299 300 300 300 300 301 301 302 303 303 303 302 302 302 302 303 303 304 305 305 306 306 306 305 304 303 302 302 302 302 302 302 302 304 305 307 309 310 311 311 311 311 311 311 311 311 311
298 298 298 297 298 297 297 297 297 297 297 297 297 298 298 298 297 297 297 297 297 297 297 297 297 297 297 297 297 297 297 298 298 298 298 298 298 298 298 298 298 298 298 298 298 299 299 299 299 299 299 299 299 299 299 299 299 300 300 300 300 300 299 299 299 299 299 299 300 300 300 301 302 303 305 307 309 310 311 311 312 312 312 312 312
298 298 298 297 297 297 297 296 296 296 296 296 296 296 297 296 296 296 296 296 296 296 296 296 296 296 296 296 296 296 297 297 297 297 297 297 298 298 298 298 298 298 298 298 298 298 298 298 298 298 298 298 298 298 298 298 298 298 298 298 298 298 298 298 298 298 298 298 298 298 299 300 300 301 302 303 305 307 309 310 311 311 312 312 312
298 298 297 297 297 297 297 296 296 296 296 296 296 296 296 296 296 296 296 295 295 296 296 296 296 296 296 296 296 296 296 296 296 296 296 297 297 297 297 297 297 297 297 297 297 297 297 297 297 296 296 296 296 296 296 296 296 297 297 297 297 297 297 297 298 298 298 297 297 298 298 299 300 301 302 303 304 306 308 309 310 310 309 309 309
298 297 297 297 297 297 297 297 296 296 296 296 296 295 295 295 295 295 295 295 295 295 295 295 296 296 296 295 295 295 295 295 295 296 296 296 296 296 296 296 296 296 296 296 296 296 296 296 296 296 296 296 296 296 296 296 296 296 296 296 296 296 296 297 297 297 297 297 297 297 298 299 300 301 301 302 303 305 306 308 308 308 307 307 306
298 297 297 297 297 297 297 297 297 297 296 296 296 295 295 295 295 295 295 295 295 294 295 295 295 296 296 295 294 294 295 295 296 296 296 295 295 296 296 296 296 296 296 296 296 296 296 296 296 296 296 296 297 297 297 297 297 297 297 297 297 297 297 297 296 296 297 297 297 298 298 299 300 301 301 302 302 303 305 306 306 306 306 306 306
297 297 297 297 297 297 297 297 297 297 296 296 296 296 296 296 296 296 295 295 295 294 294 295 295 295 295 295 294 295 295 295 296 296 296 296 296 296 296 296 296 297 296 296 297 296 297 297 297 297 297 297 297 297 297 297 297 297 297 297 297 297 297 297 297 296 296 296 297 297 298 299 300 300 301 302 303 303 304 305 305 305 306 306 306
298 297 297 297 297 297 297 297 297 297 297 296 296 296 296 296 296 296 296 295 295 294 294 295 295 295 295 295 295 295 295 295 296 296 296 296 296 296 297 297 297 297 297 297 297 297 297 297 297 297 297 297 297 297 297 297 297 297 297 296 296 296 296 296 297 296 296 296 296 297 298 299 299 300 301 302 303 304 304 305 304 304 305 306 307
Wind_Speed
28 29 28 28 28 27 23 20 21 22 21 21 21 20 22 22 21 20 21 24 24 23 23 21 19 18 18 18 17 17 15 14 12 11 11 11 10 10 10 10 9 9 9 9 9 9 9 9 8 8 7 7 7 7 7 8 8 8 9 10 9 9 8 8 8 8 7 8 8 8 8 8 7 7 7 6 5 5 4 5 7 7 6 7 7
30 30 30 28 25 25 25 20 21 23 22 22 21 21 23 23 21 20 20 23 24 24 23 21 19 19 19 18 17 16 15 14 12 11 11 11 11 11 10 10 9 9 9 9 9 8 8 8 8 9 8 7 7 7 8 8 9 9 8 9 9 9 8 8 9 8 7 7 8 8 7 7 6 6 6 5 5 4 3 5 6 7 7 7 7
32 32 32 28 22 23 25 23 23 24 22 22 21 22 24 23 22 20 19 22 24 24 23 21 19 18 18 17 16 16 16 14 12 11 11 11 11 11 10 9 9 9 8 8 8 7 7 8 9 10 9 7 7 8 8 8 9 9 9 9 9 9 8 8 8 8 7 7 7 7 7 7 6 4 5 5 4 4 3 4 5 6 7 7 7
32 33 33 29 23 22 24 26 26 25 23 22 21 22 25 23 21 19 18 22 24 23 22 20 19 18 17 16 16 16 16 15 13 13 12 12 11 11 10 10 9 8 8 8 7 7 8 8 8 9 8 8 8 8 8 8 8 9 9 9 8 9 9 9 9 9 8 7 5 5 5 6 5 4 5 4 4 4 3 4 5 6 6 6 7
28 29 33 30 25 23 23 26 27 26 25 23 21 23 23 21 20 20 20 22 23 22 21 20 20 20 19 18 17 17 16 15 15 14 13 12 12 12 11 10 9 9 9 9 9 8 8 8 8 8 8 8 8 8 8 8 8 8 8 8 9 8 8 8 10 9 8 8 6 4 4 4 5 7 7 5 4 4 3 4 5 6 5 6 6
25 26 29 28 25 23 22 26 29 27 26 25 24 23 23 21 20 20 21 22 22 21 21 21 21 21 21 20 20 19 18 17 15 13 12 12 13 12 11 11 10 11 10 10 10 9 8 8 8 7 8 8 8 9 9 9 8 8 8 8 9 9 8 7 9 9 9 9 7 4 3 3 5 8 7 7 7 4 4 5 6 7 6 6 6
25 24 24 26 27 26 25 28 30 29 28 26 24 23 23 22 21 22 22 23 23 23 23 22 22 22 22 21 21 19 18 17 14 11 12 13 13 13 12 12 12 11 11 11 10 9 8 8 7 7 7 7 7 8 8 8 8 7 8 8 8 9 9 7 7 8 8 9 8 6 3 2 3 6 7 9 9 6 5 6 7 7 6 5 6
25 24 23 24 27 26 25 28 30 29 28 27 25 24 23 23 22 23 23 24 24 25 25 23 22 23 23 21 20 18 16 16 15 13 13 13 13 13 13 12 12 12 11 11 10 9 8 7 7 7 7 6 7 7 7 7 7 7 7 7 8 9 9 8 8 9 8 8 8 8 5 1 1 5 6 8 10 10 9 7 6 6 5 5 6
23 22 21 21 21 20 20 25 30 29 28 27 26 25 24 24 22 22 23 24 25 26 25 23 22 23 23 21 20 19 17 16 16 15 14 14 14 13 13 12 11 11 11 11 10 9 8 7 7 7 7 6 6 6 6 6 6 6 6 6 7 7 8 9 9 9 8 8 8 8 6 4 3 5 6 6 9 11 10 9 7 6 5 7 7
19 17 18 18 16 17 18 23 27 26 25 25 25 25 24 24 22 22 23 22 25 27 25 24 24 24 23 21 21 21 19 17 16 15 14 15 14 13 13 12 11 11 11 11 10 9 8 8 7 7 6 6 6 6 6 6 5 5 5 6 6 7 7 7 7 8 8 8 7 7 6 5 5 6 7 7 7 8 10 10 7 6 7 10 10
15 15 17 16 15 17 19 21 22 22 22 23 24 24 24 24 23 22 22 21 25 29 27 26 26 24 23 22 22 21 19 17 16 15 15 15 14 13 12 11 11 11 11 11 10 9 8 8 7 6 5 5 5 5 5 6 5 5 5 5 6 7 6 6 6 7 8 8 7 5 3 4 5 4 5 7 7 7 10 12 8 7 9 11 12
16 18 20 20 20 22 23 23 22 21 21 21 21 22 21 21 21 20 20 20 24 28 27 27 27 24 23 23 21 19 17 16 15 15 15 14 14 13 12 12 11 12 12 12 10 9 8 7 6 5 4 4 5 5 5 6 6 5 5 6 6 7 6 5 5 5 5 6 7 5 4 6 5 2 3 6 7 7 10 11 10 8 9 11 13
18 20 24 25 25 26 26 26 24 21 19 17 17 17 15 14 16 19 20 19 21 26 27 27 27 24 23 22 20 18 15 14 14 14 14 14 13 12 12 13 12 12 13 12 11 10 9 7 7 6 5 5 6 6 6 7 7 6 6 6 6 6 5 4 4 3 3 5 6 6 6 7 5 3 4 5 6 7 9 10 9 8 9 13 14
19 21 22 23 23 21 21 21 19 16 14 14 16 15 15 15 16 18 18 18 19 24 27 27 26 24 23 22 19 16 14 13 13 13 13 13 13 12 12 12 12 12 12 11 11 11 10 8 6 6 5 6 7 7 7 7 7 7 6 6 5 4 4 3 3 2 2 3 6 7 7 7 5 4 4 5 4 5 7 9 9 10 11 13 13
18 20 19 19 19 16 14 14 15 13 10 13 17 17 17 17 15 15 16 18 18 21 23 23 24 24 23 21 18 16 14 12 12 12 12 12 13 13 13 12 11 11 11 10 10 10 10 8 6 5 4 6 8 8 8 7 7 7 7 6 5 4 4 4 4 3 3 3 5 7 7 6 5 4 4 5 4 3 6 6 7 11 14 14 11
16 20 18 16 16 14 12 12 13 13 10 12 16 16 14 11 11 14 18 18 17 18 20 19 20 23 22 20 18 16 14 12 12 12 11 11 12 13 13 12 11 10 10 9 9 9 9 8 6 5 4 5 8 9 8 7 7 8 9 8 7 7 6 6 6 6 4 4 4 6 7 6 5 4 5 6 6 7 8 7 5 9 13 14 12
16 16 12 9 10 11 12 12 11 12 12 12 13 12 9 7 9 13 16 17 16 16 19 19 20 22 20 19 18 16 14 12 11 12 11 11 12 12 12 12 11 10 9 9 8 8 8 8 7 6 4 5 8 10 8 7 8 9 10 9 8 8 8 7 7 7 6 5 5 6 7 7 6 6 7 9 11 12 11 10 10 8 9 11 12
17 13 5 3 4 6 8 10 11 12 12 10 11 9 6 6 7 7 10 15 17 18 20 21 21 21 19 18 18 15 13 11 10 10 11 12 13 12 12 12 11 10 9 8 8 8 7 7 7 6 4 5 8 11 9 8 9 10 10 9 8 8 7 7 8 8 8 8 7 8 8 8 8 10 12 14 14 14 12 11 11 10 9 9 9
13 10 4 3 2 2 5 7 9 11 8 7 10 9 7 6 6 5 8 14 17 20 22 22 22 21 19 18 17 15 13 12 11 11 12 12 13 13 12 12 11 10 9 8 8 7 7 7 7 7 5 5 8 11 10 9 9 10 9 8 8 8 7 7 8 9 10 10 9 10 10 10 11 13 15 16 15 14 12 9 7 7 7 7 7
9 8 4 1 2 2 3 4 6 10 9 8 10 10 10 9 7 6 10 15 19 22 24 23 23 21 19 18 16 15 15 13 12 12 12 12 12 12 12 11 10 9 9 8 8 7 7 7 8 8 6 5 8 11 11 10 10 10 9 8 7 8 8 7 8 10 11 10 10 10 11 11 12 14 15 15 14 13 11 8 3 2 3 3 4
9 7 4 2 1 2 2 1 4 8 10 9 10 13 14 13 9 7 12 17 21 24 25 22 22 21 19 18 17 16 16 14 13 12 12 12 13 12 11 10 9 8 8 9 8 7 7 8 8 8 7 6 8 11 11 10 10 11 9 8 7 7 7 8 8 9 10 10 9 9 9 10 11 12 12 11 11 9 7 5 1 1 2 2 1
9 8 9 5 4 4 3 3 5 8 10 10 12 16 16 13 9 10 13 17 21 24 24 23 22 21 20 19 18 17 16 15 13 12 12 13 13 13 11 9 8 8 8 9 8 8 8 8 9 9 9 8 8 10 11 11 11 11 10 8 7 6 7 8 8 8 8 9 8 7 7 7 8 8 8 8 6 5 3 1 2 3 4 6 5
9 8 9 8 7 7 5 4 7 11 11 10 12 14 13 9 10 13 13 16 20 23 22 22 22 21 20 19 18 17 17 15 13 12 13 14 14 13 12 9 7 6 7 8 9 9 8 9 10 10 10 9 8 10 11 12 12 11 10 8 7 6 7 9 9 7 7 8 7 6 6 5 5 5 5 4 2 1 0 1 3 4 5 6 7
11 10 10 9 8 10 10 8 10 13 12 12 13 12 9 9 11 14 14 14 18 21 23 23 22 22 21 20 19 18 17 15 13 12 13 15 15 13 12 10 7 5 6 7 7 8 9 9 10 11 11 10 9 10 11 12 12 12 10 9 9 9 10 9 9 8 7 6 5 5 4 3 3 2 2 1 1 0 1 2 2 3 3 4 5
13 11 10 9 7 9 10 7 8 11 11 13 15 11 10 11 11 14 15 14 15 19 22 22 22 22 21 20 19 18 18 16 13 12 14 16 15 13 11 10 7 5 5 6 6 7 9 9 10 11 11 11 11 11 12 13 13 12 12 11 11 11 10 10 9 8 6 5 5 5 4 4 3 3 3 3 2 2 2 3 3 3 3 3 3
12 10 8 7 6 5 5 3 7 12 10 11 13 12 13 13 12 13 15 14 15 17 20 21 21 21 22 20 18 18 18 16 14 14 15 16 15 14 12 10 8 6 4 4 5 6 8 9 11 12 13 12 13 13 14 14 14 13 12 11 10 10 9 9 8 7 6 5 5 5 5 5 5 5 5 5 4 4 4 3 3 3 3 3 3
12 10 9 8 9 8 4 1 6 11 10 10 11 12 13 13 12 13 13 14 16 18 19 20 20 20 20 18 17 18 19 17 15 15 15 15 16 15 13 11 8 6 5 4 4 6 9 10 11 14 15 14 14 15 15 15 15 14 13 11 10 9 8 8 7 6 6 6 5 4 4 4 4 4 4 4 4 5 4 4 4 4 4 4 3
13 12 11 11 11 11 9 6 6 8 9 10 9 10 12 12 11 12 12 14 16 18 18 18 18 17 16 16 17 19 19 18 17 17 16 15 16 16 15 12 10 8 6 5 4 6 9 11 12 15 15 15 16 16 16 15 14 13 13 11 10 9 8 7 7 7 7 6 5 4 4 3 3 3 3 4 4 4 4 5 5 5 5 5 5
17 15 14 14 13 12 11 10 10 11 12 12 11 12 13 13 12 12 13 13 14 16 16 15 16 18 18 18 19 21 21 20 20 19 18 16 16 16 16 13 10 9 8 7 6 6 9 11 12 14 15 15 16 16 15 14 13 12 11 11 10 9 7 7 6 6 7 7 6 5 3 3 3 4 4 4 5 5 5 5 6 6 6 6 6
19 18 17 16 14 13 12 11 11 12 14 14 13 13 13 14 14 14 15 15 15 15 16 16 17 18 20 21 21 22 22 22 21 21 21 19 17 16 16 14 11 10 9 8 8 7 8 10 11 12 13 14 14 15 14 13 12 11 10 9 9 8 7 6 4 4 5 6 6 5 3 2 2 3 4 4 5 6 6 7 7 7 7 7 8
20 20 18 16 15 13 12 12 12 13 13 14 13 12 12 13 13 13 15 16 16 16 17 17 18 18 19 20 21 22 22 21 22 22 20 18 17 14 13 13 12 10 10 9 9 8 8 9 10 11 12 12 12 13 13 12 12 11 10 9 9 8 7 6 5 5 5 6 6 6 5 4 4 4 5 6 6 7 8 8 9 9 9 9 9
20 20 18 16 15 14 13 13 14 14 15 14 12 11 11 11 11 11 13 13 13 15 16 16 17 17 17 17 19 21 21 21 21 20 18 16 17 18 17 16 15 13 11 10 10 10 9 9 9 10 11 12 12 13 13 13 12 12 11 10 10 9 9 8 8 8 7 7 8 8 8 7 7 7 8 8 9 9 10 10 10 11 11 11 11
20 21 20 19 19 19 17 15 14 14 15 15 13 11 11 11 10 10 10 9 9 10 10 11 13 14 14 15 17 18 18 18 18 18 16 13 13 16 18 16 15 14 13 12 10 9 10 9 10 10 11 12 14 14 14 14 14 13 13 13 13 12 12 12 12 11 11 11 11 11 11 11 11 11 11 11 12 12 13 13 13 13 14 14 14
22 23 22 21 21 21 21 19 18 17 16 14 13 13 13 11 9 8 9 8 8 7 6 6 7 8 8 9 12 14 15 17 16 15 13 10 11 15 17 16 15 15 16 16 13 11 11 11 11 12 12 13 14 15 15 15 15 15 15 15 15 14 14 15 15 15 15 15 15 15 15 15 15 15 15 15 14 15 15 16 16 16 17 17 16
24 24 22 22 22 23 23 22 22 21 18 15 14 16 16 13 11 11 10 9 8 8 9 9 8 7 6 7 9 11 12 14 15 14 12 11 12 15 15 16 16 16 17 16 14 13 12 12 12 12 13 13 15 16 16 16 15 15 15 15 16 16 16 17 17 17 17 17 18 17 17 17 17 17 17 17 17 17 18 19 19 19 20 19 19
26 27 26 24 23 24 26 25 23 23 22 20 19 19 18 16 15 14 12 11 10 11 12 11 11 11 9 9 11 12 11 11 11 11 11 10 11 12 13 15 15 15 13 13 13 12 12 12 12 12 12 13 14 15 16 17 16 16 16 17 17 17 18 18 18 18 18 18 18 18 18 19 19 19 19 19 20 20 21 21 21 22 22 22 22
28 30 30 28 27 28 28 28 28 27 26 24 23 22 20 20 20 19 18 17 15 16 16 14 13 13 12 11 11 12 11 9 8 7 8 8 8 10 11 12 13 14 14 13 12 12 13 13 13 13 14 14 15 15 16 17 17 18 18 18 19 19 19 19 19 19 20 20 20 20 21 21 21 21 21 21 22 23 23 22 22 23 23 24 24
26 28 28 27 27 27 27 27 28 29 28 26 24 22 22 23 24 23 23 22 21 21 20 18 16 16 14 12 11 10 9 7 6 7 7 7 8 8 8 8 10 13 13 13 13 12 12 13 13 13 13 12 12 13 14 16 17 18 18 18 18 19 19 19 19 20 20 20 20 21 21 22 22 22 22 23 23 23 22 22 22 23 24 24 25
24 24 24 24 22 22 22 22 24 25 23 20 19 20 23 24 23 23 23 23 22 22 20 19 18 16 15 14 12 10 9 8 7 7 7 7 7 7 7 7 8 8 9 10 10 10 10 10 10 11 12 12 12 13 14 14 15 16 16 16 17 17 17 17 17 18 18 18 18 18 19 20 20 21 21 21 21 21 21 21 21 22 24 24 23
21 20 20 20 19 19 19 19 20 20 18 15 13 14 18 20 19 19 20 21 20 19 18 17 16 14 13 12 12 10 9 8 8 8 7 6 5 5 5 5 6 6 6 6 7 7 8 9 9 9 10 12 14 14 14 14 14 14 14 15 15 15 16 17 17 18 18 17 17 18 18 19 19 19 20 20 20 21 21 22 22 23 24 24 23
17 16 16 16 17 18 19 20 20 18 17 15 11 9 12 14 13 14 17 18 18 16 15 14 12 11 10 9 8 8 7 7 7 6 5 4 3 3 4 4 5 5 5 6 6 7 8 9 9 9 9 10 12 13 14 14 14 15 15 16 17 18 19 19 20 20 20 20 20 20 21 22 22 21 21 22 22 22 22 23 23 23 23 23 22
16 16 15 14 16 16 17 19 19 18 17 16 12 11 12 12 11 14 16 16 15 14 13 11 10 8 7 6 5 4 4 3 2 2 2 3 3 5 5 6 7 8 8 9 10 11 11 12 13 14 15 16 17 18 18 19 19 19 20 21 22 23 24 25 25 25 25 25 25 25 25 26 26 25 25 25 25 25 25 25 25 24 24 24 23
17 17 15 14 15 16 16 17 17 16 16 14 13 12 13 11 12 15 16 14 13 12 11 9 8 7 6 5 4 3 2 1 0 1 2 3 4 6 7 8 9 10 12 13 14 15 16 17 18 19 20 21 22 24 25 25 26 26 27 27 28 29 30 30 30 29 29 29 29 28 28 29 29 29 30 29 29 29 28 28 27 27 26 26 24
16 16 14 13 14 15 15 15 15 14 15 14 12 11 11 11 13 15 14 12 12 10 9 7 6 6 5 4 3 3 2 1 2 2 3 4 5 6 7 8 9 10 11 13 14 15 17 18 19 19 20 21 22 23 25 26 27 29 30 30 30 31 31 31 30 30 30 30 30 30 30 29 29 30 30 31 31 30 30 29 29 28 27 26 25
15 14 14 14 15 15 15 15 15 14 14 13 12 12 11 12 14 14 13 12 11 9 7 7 6 6 5 5 4 4 3 3 3 3 4 5 6 7 7 8 9 9 10 11 12 13 15 16 17 18 19 19 20 20 22 23 24 25 26 27 27 28 28 29 29 29 29 29 29 29 28 28 28 28 29 29 29 29 29 30 29 29 28 26 26
14 13 13 13 15 15 16 18 17 16 15 14 14 14 14 15 16 15 13 12 11 10 9 9 8 8 7 7 6 5 5 5 4 4 4 4 5 6 6 7 7 8 8 9 9 10 11 12 13 14 14 15 16 17 18 20 20 21 21 22 23 24 25 26 27 28 29 29 29 28 27 26 26 26 25 26 26 26 27 27 27 27 26 26 26
14 13 12 12 13 14 16 18 19 18 17 16 16 17 18 18 17 16 15 14 14 13 13 12 12 11 10 9 8 7 7 6 6 6 5 5 4 4 5 5 5 5 6 6 7 7 8 9 9 10 10 10 10 12 14 15 16 17 18 19 20 21 22 24 25 26 28 28 28 28 27 25 24 23 23 22 23 23 23 24 24 23 23 22 23
13 12 11 11 12 14 15 16 18 17 17 16 17 17 18 18 17 17 16 15 14 14 13 13 13 12 11 10 9 9 8 8 8 7 7 7 7 7 7 7 7 7 8 8 8 9 9 9 10 10 10 9 9 9 11 12 14 15 16 17 18 19 20 21 22 24 25 26 26 26 25 24 22 21 20 20 19 19 20 21 21 20 19 18 19
12 10 10 10 11 12 13 15 16 16 16 16 16 17 16 16 17 16 16 15 15 14 13 12 12 11 11 10 9 9 9 9 10 10 9 9 9 8 8 9 9 9 9 9 10 10 11 11 10 10 10 9 8 8 9 10 11 13 15 16 17 18 19 19 20 22 23 24 24 24 23 21 20 19 18 18 17 16 17 18 18 18 18 18 19
11 10 9 8 9 10 11 12 14 14 14 15 15 15 16 16 16 16 16 16 15 15 14 13 12 11 10 9 8 8 8 9 11 11 11 11 11 11 11 11 11 11 11 11 11 11 11 12 11 10 10 9 8 8 8 9 10 11 13 14 15 16 17 18 19 20 22 23 23 23 22 20 19 18 16 16 15 16 16 17 17 17 17 19 20
10 10 10 9 8 7 7 9 10 11 11 12 13 13 14 14 14 15 15 15 15 15 15 15 13 12 10 9 8 7 8 8 9 10 11 11 11 11 12 12 13 13 13 13 12 12 11 12 11 10 9 9 8 8 8 9 11 12 12 12 12 12 12 14 16 17 19 20 20 21 21 19 18 17 15 15 16 17 17 16 15 15 16 16 17
Wind_Direction
213 215 217 215 213 213 212 206 205 206 204 202 199 200 206 207 208 209 203 195 191 189 187 185 184 185 184 181 179 179 182 183 185 189 190 188 184 183 184 182 180 178 177 178 182 187 188 186 188 189 184 181 185 190 193 193 189 190 194 190 188 192 186 176 170 167 173 167 149 140 142 145 139 136 153 161 151 148 160 172 171 171 178 177 171
220 219 220 216 210 211 213 206 205 204 200 201 198 198 205 210 211 210 205 199 194 192 191 187 187 190 187 181 180 181 181 185 189 188 184 181 177 176 176 174 172 172 173 175 178 182 181 178 179 183 185 187 192 195 195 195 190 187 191 192 191 189 187 184 178 171 175 172 152 138 134 130 123 128 141 139 136 142 154 172 176 183 191 188 184
225 222 221 218 209 206 210 211 213 212 206 202 198 202 206 207 210 207 203 202 198 194 193 190 189 190 187 182 180 181 181 183 186 184 181 178 175 173 171 172 174 172 172 172 172 176 176 177 181 184 188 191 196 199 196 191 186 184 187 193 195 190 187 189 188 183 181 177 158 143 138 133 129 130 130 128 138 144 148 160 165 184 195 195 195
222 223 222 220 211 204 209 214 218 220 216 206 198 209 214 209 209 205 200 203 202 195 193 192 188 183 180 180 179 181 184 182 180 182 182 181 178 175 175 178 177 174 172 171 171 175 177 180 185 187 187 188 191 192 191 187 183 186 192 195 198 196 193 194 194 192 184 175 166 157 150 145 142 145 138 131 138 138 138 146 146 159 174 179 186
217 220 222 219 213 207 209 216 220 221 221 215 210 219 224 218 213 207 200 202 202 196 191 191 186 180 176 176 177 179 182 180 179 182 183 184 183 181 181 180 177 174 173 174 174 175 175 176 178 180 182 185 187 185 186 189 188 192 199 200 203 204 204 205 200 192 184 178 176 164 149 151 162 160 141 118 129 148 139 138 141 138 138 145 157
215 217 218 216 213 211 212 217 221 221 220 221 220 222 225 222 217 212 204 199 199 195 191 190 186 183 179 178 179 177 178 179 180 185 186 187 186 183 182 179 176 174 174 176 175 171 170 169 172 177 180 184 185 183 186 192 192 194 199 202 207 204 199 206 205 196 189 183 179 171 146 137 163 166 152 127 129 146 139 128 124 121 129 140 143
215 215 214 211 210 211 217 221 220 220 220 221 222 222 225 225 218 213 205 197 196 193 189 190 187 185 185 184 183 182 181 178 174 177 180 178 177 179 180 178 176 174 173 175 174 170 167 167 170 175 180 181 179 180 187 191 192 196 198 198 203 201 190 191 201 201 197 192 190 188 167 102 131 157 160 150 140 133 134 134 131 135 149 147 137
212 211 207 205 205 206 214 221 219 218 219 220 221 221 223 226 222 215 207 197 193 191 188 189 186 185 188 187 184 185 183 175 167 167 167 165 167 172 177 177 174 171 171 175 177 173 169 169 170 171 174 174 171 172 177 180 185 196 200 199 202 201 188 181 191 201 206 207 204 203 202 200 137 144 150 157 151 142 143 149 153 156 161 143 134
214 212 208 204 201 200 208 218 219 218 219 220 222 221 222 227 226 220 214 199 188 189 188 186 185 185 188 188 182 179 179 173 168 165 161 161 164 170 173 174 172 170 171 177 178 173 169 168 167 168 170 171 171 168 163 162 171 184 195 203 203 197 188 182 187 195 206 215 211 210 215 223 208 165 157 159 153 148 151 157 157 159 154 138 132
217 213 211 206 198 198 206 216 218 217 220 222 222 223 223 228 228 222 222 205 186 188 189 183 184 186 187 186 180 176 175 174 170 166 163 162 164 168 170 171 172 173 174 173 168 164 163 162 162 166 170 174 174 168 159 157 161 171 186 200 199 193 190 189 191 193 196 201 200 202 212 222 213 186 172 166 154 148 156 159 153 152 145 133 128
214 210 210 208 202 202 207 215 219 219 221 223 224 226 225 229 230 225 225 210 187 186 189 184 183 185 185 183 179 177 177 176 175 170 165 162 163 166 165 165 168 171 170 163 157 155 154 154 154 160 171 179 178 170 163 163 166 172 181 192 197 196 195 197 202 201 193 187 188 194 195 201 209 198 182 179 165 145 152 158 153 142 137 132 130
213 211 210 209 206 207 211 217 221 224 227 229 228 227 225 228 233 229 224 214 193 187 187 185 183 182 182 181 180 181 181 180 178 170 163 162 164 163 158 156 159 160 161 158 156 156 152 151 149 150 163 178 181 180 171 165 167 174 179 184 195 199 201 201 202 207 205 191 189 194 169 158 176 192 189 190 174 149 149 156 152 139 134 133 132
213 207 205 209 209 209 212 213 217 226 230 229 225 220 218 227 237 233 227 221 201 188 186 184 182 180 178 179 182 185 184 183 178 167 160 161 160 157 152 151 152 154 158 160 160 158 152 150 148 144 148 160 169 171 164 157 159 165 172 178 188 196 196 193 187 187 199 193 188 190 169 153 158 171 168 178 179 159 149 149 145 138 136 135 134
207 203 205 213 216 215 214 208 210 219 219 225 232 231 229 228 230 228 226 227 209 188 185 185 181 178 176 177 182 185 182 179 173 164 158 157 152 146 144 143 145 149 153 156 158 157 152 148 146 142 144 157 163 161 157 154 152 153 158 166 176 183 178 166 154 150 157 175 182 185 179 168 169 177 161 163 181 172 153 149 145 138 137 136 134
204 211 217 223 222 218 215 204 197 199 206 232 245 245 236 223 221 223 218 220 209 188 186 188 180 174 174 177 179 180 179 173 168 163 156 154 148 140 138 140 141 145 147 146 148 151 151 150 148 141 144 163 169 165 160 157 152 150 147 145 147 142 129 116 103 103 121 151 174 183 188 187 187 190 166 155 162 158 140 135 141 145 141 137 135
204 212 218 220 214 203 195 188 187 196 216 239 242 243 237 209 194 209 213 213 205 187 186 189 182 176 174 177 176 174 176 173 167 163 154 151 148 140 139 142 144 146 146 143 143 144 145 147 147 140 143 164 172 170 165 162 157 145 133 124 120 114 105 96 87 84 97 128 158 171 179 185 187 183 164 146 138 140 131 105 112 150 147 141 143
184 195 206 205 192 180 182 188 199 216 231 243 245 245 237 193 175 197 208 207 201 189 184 184 185 181 177 180 179 174 175 175 168 161 156 155 151 144 143 146 150 153 152 151 150 145 139 141 142 138 136 153 169 171 169 167 157 138 124 116 112 107 96 88 82 81 88 110 139 153 158 164 168 158 146 137 130 134 130 104 99 120 129 137 148
168 184 209 220 175 159 176 191 208 225 235 244 248 244 221 197 202 205 199 197 196 189 182 181 186 185 183 186 183 176 176 175 171 165 164 162 156 150 148 147 151 158 160 160 159 152 142 140 142 139 131 142 164 171 171 168 155 135 122 118 117 110 99 91 86 86 90 98 118 138 141 141 142 137 134 130 125 128 131 113 99 97 97 110 131
175 189 214 268 243 187 181 184 199 221 235 240 237 224 189 189 218 211 181 185 189 186 183 185 187 186 188 191 184 177 177 178 176 173 171 167 161 158 153 148 150 155 161 166 165 158 148 143 145 143 132 135 158 168 168 166 156 138 127 126 124 116 109 105 97 91 92 95 104 117 121 124 128 128 127 125 121 125 135 132 108 93 91 93 102
196 193 185 277 271 214 197 184 203 225 235 235 225 202 181 193 215 198 176 177 181 184 186 187 189 188 191 192 185 179 178 180 180 174 172 170 164 161 154 146 145 149 155 164 166 162 152 145 147 148 140 132 151 164 166 166 163 151 140 137 133 124 118 117 109 97 92 93 99 106 108 112 119 121 123 122 120 126 141 150 137 67 64 78 85
189 172 123 86 191 181 191 165 195 221 227 223 204 185 189 204 206 182 175 175 177 184 187 189 190 189 190 190 187 182 179 181 180 173 171 170 164 159 152 143 143 148 154 158 163 164 154 146 149 154 150 137 144 159 164 167 167 160 152 146 142 137 130 125 119 108 99 95 98 105 106 105 107 108 108 107 110 119 135 153 161 350 341 324 318
155 127 98 108 154 158 172 177 179 199 209 203 191 188 197 206 191 174 175 176 179 185 190 192 191 189 188 187 185 182 181 182 180 174 171 170 165 159 152 145 144 151 155 154 158 163 157 151 156 161 158 149 146 154 162 167 166 160 153 148 147 149 143 136 128 120 112 104 100 104 106 102 100 97 95 95 97 102 112 148 291 299 298 297 292
144 132 117 136 162 167 176 187 190 197 200 193 189 191 193 195 188 179 176 180 185 189 193 195 193 189 185 183 182 182 183 184 182 177 173 169 164 159 154 149 144 148 155 155 157 162 162 161 163 166 164 161 156 154 159 163 160 153 147 141 138 139 139 140 139 134 124 116 111 112 111 109 108 106 104 103 94 81 75 285 293 297 298 298 291
133 130 128 144 166 174 172 179 196 196 191 185 185 186 184 188 193 185 178 182 188 192 196 196 194 192 185 182 182 183 184 186 184 180 175 167 161 156 153 148 139 140 156 162 162 163 165 168 168 169 169 168 166 160 157 158 154 147 141 134 129 128 128 132 139 145 144 140 139 138 139 138 138 148 168 190 227 267 286 288 293 304 313 313 296
115 114 117 132 148 155 152 158 174 169 171 180 180 186 197 195 192 186 184 186 189 194 199 199 198 196 189 185 184 184 186 187 185 181 173 167 163 159 155 151 140 130 147 166 170 166 167 169 169 170 171 170 169 163 158 157 153 147 143 138 134 131 129 130 134 141 152 160 167 174 179 190 205 219 231 236 238 257 279 276 275 284 300 313 316
103 104 102 102 95 105 119 116 126 134 157 184 179 186 197 191 180 178 180 183 186 191 197 202 203 200 194 190 187 186 187 188 187 180 170 166 168 166 160 154 143 126 132 160 173 173 169 168 170 170 170 169 168 163 160 159 156 153 150 149 147 144 142 142 142 145 150 158 170 185 201 215 226 236 242 249 259 272 276 266 262 270 279 291 309
99 101 96 86 76 81 89 101 138 150 177 189 179 181 183 178 176 175 174 177 181 186 194 201 204 201 196 191 189 189 189 190 189 182 172 168 171 171 166 160 149 132 129 150 171 179 174 171 172 171 170 169 168 166 165 164 163 161 161 160 161 161 160 161 162 163 165 169 176 189 205 220 231 240 250 266 278 284 284 278 273 276 282 284 279
96 98 99 98 96 98 95 88 116 151 166 165 169 175 171 173 179 171 164 170 177 184 192 200 204 205 205 199 193 192 191 192 192 187 181 175 173 173 171 166 156 141 134 143 165 184 181 176 176 175 173 173 172 172 171 171 171 171 172 173 174 175 177 178 181 185 187 186 184 187 200 219 239 254 273 288 293 298 302 301 299 296 294 290 279
93 98 103 107 109 110 105 101 109 123 134 145 163 172 169 174 175 163 159 168 175 180 188 195 197 201 204 203 198 193 191 194 195 193 192 186 179 178 177 174 165 153 149 149 157 177 182 178 179 180 180 180 179 179 179 179 180 181 182 185 187 189 191 193 197 202 205 205 198 191 200 224 247 263 279 290 295 304 312 313 315 315 310 306 301
89 99 108 113 113 112 111 111 116 121 128 141 156 164 167 171 170 166 167 171 175 179 187 194 194 196 199 199 198 194 191 193 197 198 197 189 176 171 175 178 173 162 158 154 151 165 176 175 178 184 187 189 189 190 191 192 193 194 198 203 206 209 209 208 211 213 216 213 203 196 201 222 250 267 279 287 290 297 301 303 307 309 310 309 305
89 100 109 116 116 114 115 114 112 116 126 135 142 149 156 162 166 169 170 173 179 185 191 195 196 198 198 195 196 197 196 199 201 203 202 194 185 184 191 197 191 173 162 157 153 158 168 171 175 180 186 193 198 201 204 206 206 207 209 210 212 216 217 216 219 219 216 211 208 213 224 234 250 263 272 279 283 287 290 292 295 295 296 296 295
90 99 107 114 115 115 116 114 111 115 122 126 133 141 141 139 141 148 156 168 182 192 197 196 194 196 195 194 197 200 203 207 208 212 221 222 217 219 222 219 208 194 184 176 168 166 169 174 178 181 184 190 198 203 204 206 208 209 211 211 213 217 221 226 231 232 232 229 228 234 241 249 259 266 272 276 280 286 290 289 289 287 286 286 286
92 99 104 108 110 111 113 112 112 113 115 118 127 136 129 120 119 125 134 150 168 180 187 188 192 195 196 201 204 206 212 216 216 220 228 228 219 214 212 210 209 210 210 207 201 195 192 196 200 200 200 201 205 207 208 209 211 213 217 221 224 227 231 234 239 242 244 244 245 248 250 255 261 267 272 276 277 281 285 286 286 283 282 281 278
95 101 104 105 107 108 110 111 111 109 110 117 125 128 123 117 120 128 130 135 141 141 136 146 167 179 187 199 205 208 214 216 212 208 205 198 195 200 205 210 215 218 215 215 221 223 219 220 224 223 222 222 222 221 222 223 224 226 230 232 235 238 239 240 242 243 244 246 248 251 253 255 258 263 268 272 275 278 280 281 281 279 279 278 276
95 100 102 103 105 106 107 109 110 109 111 116 118 118 120 123 127 131 127 121 120 116 112 115 125 135 149 172 181 188 194 195 192 190 189 193 199 205 212 216 217 216 211 212 222 229 230 233 236 237 239 239 237 235 235 236 239 241 243 246 248 249 249 249 248 247 247 248 250 252 255 257 259 262 266 270 272 274 275 276 276 276 276 276 276
93 97 97 96 97 99 100 104 107 108 108 109 108 108 112 115 118 120 119 120 123 118 111 113 120 127 139 154 162 169 173 175 179 184 192 200 203 208 212 213 216 218 212 210 218 225 229 232 233 234 237 240 241 241 241 242 245 247 249 252 255 257 256 256 254 253 253 254 255 258 259 261 263 265 267 270 270 271 271 273 274 274 274 274 276
95 97 96 95 94 94 95 97 99 100 101 102 106 107 108 108 107 108 111 116 119 115 111 112 116 118 123 132 143 152 157 161 171 180 191 200 205 209 206 199 202 209 209 212 217 219 222 225 227 229 231 234 239 242 244 247 248 250 253 256 259 261 261 261 260 259 260 261 262 263 263 264 266 267 267 268 267 268 268 269 271 272 273 274 275
93 96 97 97 96 95 95 95 95 95 95 96 100 104 107 106 103 103 105 106 105 104 105 108 111 112 115 117 122 129 136 148 169 179 187 196 204 209 205 193 195 204 211 219 222 222 225 228 230 232 231 232 239 245 249 252 253 255 257 259 261 262 262 263 263 264 265 267 268 269 269 270 270 269 267 265 263 263 264 266 267 269 271 273 274
86 88 91 92 93 93 94 95 93 90 91 95 97 99 101 100 98 98 99 98 97 98 99 102 104 107 110 111 112 115 122 136 153 159 167 180 187 192 198 198 200 206 215 220 221 226 235 237 240 247 248 253 263 265 261 258 258 259 260 261 262 262 264 266 268 270 272 274 275 276 275 274 271 268 266 264 264 265 267 268 269 270 272 274 276
81 79 82 85 87 88 87 86 82 78 79 85 92 99 97 92 93 96 92 88 88 89 91 95 99 101 104 106 109 111 115 123 130 133 140 151 154 157 173 189 199 208 221 232 236 247 255 256 259 265 264 264 266 266 265 264 264 264 265 267 268 269 271 271 272 274 275 276 278 279 276 273 270 269 268 269 271 273 275 275 275 275 277 279 280
81 76 76 77 77 76 73 71 69 68 68 66 70 87 84 75 79 86 80 74 72 74 77 81 85 91 95 97 102 105 108 116 126 131 139 150 156 165 179 195 209 216 224 237 248 256 263 267 269 274 274 270 267 267 270 272 273 274 276 279 280 281 281 280 280 280 279 280 280 280 277 275 273 272 272 273 275 276 276 276 276 276 278 279 279
78 73 70 70 69 68 67 65 62 61 62 57 53 65 67 61 64 71 70 68 66 66 66 67 71 76 78 79 84 84 86 100 121 153 187 218 233 236 240 245 251 252 252 256 259 261 264 268 272 274 275 275 275 275 275 275 276 277 278 279 282 283 283 283 283 281 281 280 280 278 277 276 276 275 275 275 275 274 273 273 274 274 275 276 277
77 72 66 64 67 67 66 66 64 61 61 55 46 51 57 57 63 67 66 66 65 64 62 61 63 66 66 69 71 68 68 56 345 255 249 256 257 256 257 260 263 265 265 267 268 270 272 274 277 278 278 278 278 278 278 278 277 277 277 277 278 279 279 280 279 278 277 276 275 274 273 272 273 273 273 274 273 272 271 271 271 270 271 273 275
82 79 73 67 70 72 71 72 71 68 69 64 57 58 62 64 68 69 67 65 63 61 58 53 53 57 56 55 51 44 31 358 326 300 290 284 277 275 273 270 269 269 269 270 271 272 273 274 275 276 276 276 276 276 276 276 275 274 275 275 275 275 275 275 275 275 275 274 273 272 271 271 271 270 271 272 272 271 271 270 269 269 270 272 274
88 86 81 76 79 82 84 85 83 80 81 80 76 78 82 81 78 75 71 68 65 62 58 55 52 50 44 38 29 15 0 345 324 306 300 294 289 287 283 280 279 277 275 274 273 271 271 271 272 273 273 274 275 274 273 272 272 272 272 273 274 274 275 276 277 277 277 277 277 277 277 277 276 274 273 273 272 271 271 269 269 270 271 273 276
96 94 91 88 89 89 89 89 87 85 85 86 84 84 85 84 82 77 71 68 64 61 59 58 54 49 42 34 24 13 5 355 340 329 320 307 301 298 294 292 292 289 286 285 283 281 280 279 279 280 280 281 281 280 278 277 277 276 276 277 277 278 278 278 279 280 281 281 282 282 282 282 281 280 279 278 276 275 273 271 271 272 273 275 276
104 103 101 101 100 97 93 90 87 85 83 82 82 81 80 80 78 74 68 62 57 54 53 51 49 45 40 36 30 22 16 9 4 5 4 359 354 342 329 325 322 314 310 308 306 304 302 301 301 298 296 296 294 291 288 287 285 283 281 279 279 279 279 279 279 279 280 280 282 283 283 283 284 283 282 281 279 277 275 274 273 273 273 274 272
108 106 107 108 106 103 98 93 89 86 84 82 80 79 78 77 75 70 66 61 55 51 48 45 43 39 36 35 35 33 32 29 27 26 24 24 19 6 356 353 348 341 337 333 330 326 321 320 320 318 316 318 316 308 301 298 295 291 288 285 283 280 278 276 276 276 275 276 277 279 280 281 283 284 284 283 282 280 277 274 272 271 272 272 271
107 107 109 110 108 103 99 95 90 86 84 83 82 80 78 75 72 68 63 58 53 50 47 45 43 40 38 39 41 43 48 52 50 44 38 34 29 20 12 6 359 354 350 346 343 341 338 339 342 342 341 342 340 332 321 313 307 303 298 295 292 289 286 282 279 277 275 274 272 273 276 279 281 283 285 286 285 283 279 274 270 269 268 269 272
101 99 100 103 103 99 95 93 90 86 84 84 83 81 79 74 70 65 59 54 49 46 44 43 41 40 42 45 49 53 57 60 59 53 46 40 34 28 22 16 10 6 1 359 360 357 352 352 358 2 359 355 354 351 343 335 328 321 314 308 305 302 299 294 288 283 280 276 273 272 274 278 280 282 284 286 286 283 277 271 269 269 269 269 269
104 98 93 91 93 94 93 93 90 86 84 84 82 80 76 71 66 60 54 48 43 39 37 35 33 32 34 38 44 50 53 55 57 57 55 51 44 33 23 16 12 10 9 9 9 7 3 1 3 8 6 359 356 355 350 344 341 338 332 326 319 313 306 299 294 289 286 283 280 276 275 278 280 281 282 283 282 279 274 272 271 274 274 271 265